When you browse on this site, cookies collect data to enhance your experience and personalize the content and advertising you see.
Visit our Privacy Policy to learn more. By continuing to use the site, you agree to this use of cookies and data.
  • In Romania
  • List of Countries
  • For 7 days
  • Water Temperature
  • Satellite Maps
  • Weather Map
  • Weather Widgets
  • user-avatar
    Login

    Hourly Weather Albany

    Today, 23 February, Saturday

    Time Temperature Precipitation Wind Pressure Humidity
    00:00 -2°C° 0 mm 1 mps 772 mmHg 87%
    01:00 -2°C° 0 mm 1 mps 772 mmHg 88%
    02:00 -2°C° 0 mm 1 mps 772 mmHg 87%
    03:00 -2°C° 0 mm 1 mps 772 mmHg 87%
    04:00 -2°C° 0 mm 1 mps 772 mmHg 87%
    05:00 -3°C° 0 mm 1 mps 772 mmHg 87%
    06:00 -4°C° 0 mm 0 mps 772 mmHg 87%
    07:00 -3°C° 0 mm 1 mps 772 mmHg 86%
    08:00 -2°C° 0 mm 0 mps 772 mmHg 80%
    09:00 -1°C° 0 mm 0 mps 772 mmHg 75%
    10:00 +1°C° 0 mm 0 mps 771 mmHg 69%
    11:00 +2°C° 0 mm 0 mps 771 mmHg 66%
    12:00 +3°C° 0 mm 0 mps 770 mmHg 62%
    13:00 +5°C° 0 mm 1 mps 769 mmHg 59%
    14:00 +5°C° 0 mm 1 mps 769 mmHg 62%
    15:00 +4°C° 0 mm 1 mps 768 mmHg 65%
    16:00 +4°C° 0 mm 1 mps 768 mmHg 68%
    17:00 +2°C° 0 mm 2 mps 768 mmHg 74%
    18:00 +1°C° 0 mm 2 mps 767 mmHg 80%
    19:00 -1°C° 0 mm 2 mps 767 mmHg 85%
    20:00 -1°C° 0 mm 2 mps 767 mmHg 84%
    21:00 +1°C° 0 mm 2 mps 766 mmHg 82%
    22:00 +1°C° 0 mm 2 mps 765 mmHg 81%
    23:00 +1°C° 0.7 mm 2 mps 765 mmHg 83%

    Tomorrow, 24 February, Sunday

    Time Temperature Precipitation Wind Pressure Humidity
    00:00 0°C° 0.7 mm 3 mps 764 mmHg 85%
    01:00 0°C° 0.7 mm 3 mps 764 mmHg 87%
    02:00 +1°C° 0.7 mm 3 mps 763 mmHg 88%
    03:00 +1°C° 0.7 mm 3 mps 762 mmHg 89%
    04:00 +1°C° 0.7 mm 3 mps 760 mmHg 90%
    05:00 +1°C° 0.4 mm 3 mps 759 mmHg 91%
    06:00 +2°C° 0.4 mm 3 mps 758 mmHg 92%
    07:00 +2°C° 0.4 mm 3 mps 757 mmHg 93%
    08:00 +3°C° 0.7 mm 4 mps 755 mmHg 92%
    09:00 +5°C° 0.7 mm 5 mps 753 mmHg 91%
    10:00 +5°C° 0.7 mm 6 mps 751 mmHg 89%
    11:00 +7°C° 0.3 mm 6 mps 749 mmHg 89%
    12:00 +8°C° 0.3 mm 7 mps 747 mmHg 89%
    13:00 +8°C° 0.3 mm 7 mps 745 mmHg 88%
    14:00 +8°C° 0.1 mm 6 mps 744 mmHg 90%
    15:00 +8°C° 0.1 mm 5 mps 743 mmHg 91%
    16:00 +9°C° 0.1 mm 3 mps 742 mmHg 93%
    17:00 +8°C° 0.4 mm 3 mps 741 mmHg 87%
    18:00 +6°C° 0.4 mm 4 mps 741 mmHg 81%
    19:00 +5°C° 0.4 mm 4 mps 741 mmHg 76%
    20:00 +4°C° 0.1 mm 4 mps 741 mmHg 76%
    21:00 +3°C° 0.1 mm 3 mps 741 mmHg 77%
    22:00 +2°C° 0.1 mm 3 mps 741 mmHg 78%
    23:00 +1°C° 0.1 mm 4 mps 741 mmHg 75%

    Day after tomorrow, 25 February, Monday

    Time Temperature Precipitation Wind Pressure Humidity
    00:00 0°C° 0.1 mm 4 mps 742 mmHg 73%
    01:00 -1°C° 0.1 mm 4 mps 742 mmHg 70%
    02:00 -1°C° 0 mm 4 mps 742 mmHg 69%
    03:00 -2°C° 0 mm 4 mps 742 mmHg 69%
    04:00 -2°C° 0 mm 4 mps 743 mmHg 68%
    05:00 -2°C° 0 mm 5 mps 743 mmHg 66%
    06:00 -4°C° 0 mm 6 mps 744 mmHg 63%
    07:00 -4°C° 0 mm 6 mps 745 mmHg 61%
    08:00 -5°C° 0.1 mm 8 mps 746 mmHg 59%
    09:00 -4°C° 0.1 mm 9 mps 747 mmHg 57%
    10:00 -4°C° 0.1 mm 10 mps 748 mmHg 55%
    11:00 -4°C° 0 mm 10 mps 749 mmHg 55%
    12:00 -4°C° 0 mm 10 mps 750 mmHg 54%
    13:00 -6°C° 0 mm 11 mps 751 mmHg 53%
    14:00 -5°C° 0 mm 10 mps 752 mmHg 54%
    15:00 -5°C° 0 mm 10 mps 753 mmHg 54%
    16:00 -7°C° 0 mm 10 mps 754 mmHg 54%
    17:00 -6°C° 0 mm 9 mps 755 mmHg 55%
    18:00 -8°C° 0 mm 9 mps 757 mmHg 56%
    19:00 -8°C° 0 mm 8 mps 758 mmHg 57%
    20:00 -10°C° 0 mm 8 mps 759 mmHg 56%
    21:00 -10°C° 0 mm 8 mps 760 mmHg 56%
    22:00 -11°C° 0 mm 8 mps 761 mmHg 55%
    23:00 -11°C° 0 mm 8 mps 762 mmHg 54%

    26 February, Tuesday

    Time Temperature Precipitation Wind Pressure Humidity
    00:00 -12°C° 0 mm 8 mps 762 mmHg 53%
    01:00 -13°C° 0 mm 8 mps 763 mmHg 53%
    02:00 -13°C° 0 mm 7 mps 764 mmHg 53%
    03:00 -14°C° 0 mm 7 mps 765 mmHg 53%
    04:00 -14°C° 0 mm 7 mps 765 mmHg 53%
    05:00 -15°C° 0 mm 7 mps 766 mmHg 53%
    06:00 -15°C° 0 mm 6 mps 767 mmHg 53%
    07:00 -15°C° 0 mm 6 mps 768 mmHg 53%
    08:00 -15°C° 0 mm 6 mps 768 mmHg 49%
    09:00 -14°C° 0 mm 7 mps 768 mmHg 46%
    10:00 -13°C° 0 mm 7 mps 769 mmHg 42%
    11:00 -13°C° 0 mm 7 mps 769 mmHg 40%
    12:00 -12°C° 0 mm 7 mps 769 mmHg 38%
    13:00 -11°C° 0 mm 8 mps 769 mmHg 36%
    14:00 -12°C° 0 mm 7 mps 769 mmHg 37%
    15:00 -12°C° 0 mm 7 mps 769 mmHg 38%
    16:00 -12°C° 0 mm 7 mps 769 mmHg 38%
    17:00 -12°C° 0 mm 6 mps 770 mmHg 41%
    18:00 -12°C° 0 mm 6 mps 770 mmHg 44%
    19:00 -13°C° 0 mm 5 mps 771 mmHg 47%
    20:00 -13°C° 0 mm 5 mps 771 mmHg 49%
    21:00 -13°C° 0 mm 5 mps 772 mmHg 50%
    22:00 -12°C° 0 mm 4 mps 772 mmHg 51%
    23:00 -14°C° 0 mm 4 mps 772 mmHg 52%

    27 February, Wednesday

    Time Temperature Precipitation Wind Pressure Humidity
    00:00 -14°C° 0 mm 4 mps 772 mmHg 53%
    01:00 -14°C° 0 mm 4 mps 772 mmHg 54%
    02:00 -14°C° 0 mm 3 mps 772 mmHg 55%
    03:00 -14°C° 0 mm 3 mps 772 mmHg 55%
    04:00 -14°C° 0 mm 3 mps 772 mmHg 56%
    05:00 -14°C° 0 mm 3 mps 772 mmHg 55%
    06:00 -14°C° 0 mm 2 mps 773 mmHg 54%
    07:00 -14°C° 0 mm 2 mps 773 mmHg 54%
    08:00 -10°C° 0 mm 1 mps 772 mmHg 48%
    09:00 -9°C° 0 mm 1 mps 772 mmHg 42%
    10:00 -8°C° 0 mm 1 mps 771 mmHg 36%
    11:00 -6°C° 0 mm 1 mps 770 mmHg 36%
    12:00 -4°C° 0 mm 1 mps 769 mmHg 37%
    13:00 -3°C° 0 mm 1 mps 768 mmHg 37%
    14:00 -3°C° 0 mm 1 mps 767 mmHg 42%
    15:00 -5°C° 0 mm 2 mps 765 mmHg 48%
    16:00 -5°C° 0 mm 2 mps 764 mmHg 53%
    17:00 -6°C° 0.2 mm 3 mps 763 mmHg 57%
    18:00 -6°C° 0.2 mm 3 mps 763 mmHg 62%
    19:00 -6°C° 0.2 mm 3 mps 762 mmHg 66%
    20:00 -5°C° 0.4 mm 3 mps 761 mmHg 73%
    21:00 -5°C° 0.4 mm 3 mps 759 mmHg 80%
    22:00 -5°C° 0.4 mm 3 mps 758 mmHg 87%
    23:00 -4°C° 0.4 mm 2 mps 757 mmHg 88%

    28 February, Thursday

    Time Temperature Precipitation Wind Pressure Humidity
    00:00 -3°C° 0.4 mm 2 mps 756 mmHg 90%
    01:00 -1°C° 0.4 mm 1 mps 755 mmHg 92%
    02:00 -1°C° 0 mm 1 mps 755 mmHg 91%
    03:00 -2°C° 0 mm 2 mps 755 mmHg 90%
    04:00 -2°C° 0 mm 2 mps 755 mmHg 89%
    05:00 -3°C° 0 mm 2 mps 756 mmHg 85%
    06:00 -4°C° 0 mm 3 mps 756 mmHg 82%
    07:00 -5°C° 0 mm 3 mps 757 mmHg 78%
    08:00 -4°C° 0 mm 4 mps 757 mmHg 73%
    09:00 -4°C° 0 mm 4 mps 758 mmHg 68%
    10:00 -4°C° 0 mm 5 mps 758 mmHg 62%
    11:00 -2°C° 0 mm 5 mps 759 mmHg 60%
    12:00 -2°C° 0 mm 5 mps 759 mmHg 58%
    13:00 -2°C° 0 mm 5 mps 759 mmHg 56%
    14:00 -2°C° 0 mm 5 mps 760 mmHg 57%
    15:00 -2°C° 0 mm 5 mps 760 mmHg 57%
    16:00 -2°C° 0 mm 4 mps 760 mmHg 58%
    17:00 -4°C° 0 mm 4 mps 761 mmHg 62%
    18:00 -5°C° 0 mm 4 mps 762 mmHg 66%
    19:00 -6°C° 0 mm 3 mps 763 mmHg 70%
    20:00 -6°C° 0 mm 3 mps 763 mmHg 71%
    21:00 -7°C° 0 mm 3 mps 764 mmHg 72%
    22:00 -7°C° 0 mm 3 mps 764 mmHg 73%
    23:00 -7°C° 0 mm 3 mps 764 mmHg 73%
    Show more